Вернуться в каталог

SL-6 R/B(2)

АктивенHEO
NORAD 17216·ROCKET BODY·🇷🇺 Russia

Запущен Dec 12, 1986 с Plesetsk Cosmodrome

Loading…

Ближайшие Пролёты (ближайшие 24 часа)

TLE

СвежийSource: Space-Track

Эпоха: Sep 13, 2026, 15:44 UTC

1 17216U 86098D   26256.65610084 -.00000469  00000-0  00000-0 0  9999
2 17216  70.1578  85.4860 5532148  15.8916 142.0104  2.04013768296219

Отслеживайте SL-6 R/B(2) в реальном времени с AllMySat

Download on the App Store